Flag for Germany Weather past 2 weeks in Cuxhaven, Lower Saxony, Germany

Now
55 °F

Overcast.


Feels Like: 53 °F
Forecast: 55 / 58 °F
Wind: 8 mph from Southwest

Location: Nordholz

Current Time: Sep 24, 2014 at 1:21:08 AM

Latest Report: Sep 24, 2014 at 12:20 AM


Visibility: N/A

Pressure: 29.98 "Hg

Humidity: 82%

Dew point: 50 °F

Location of CuxhavenLocation

Historic Weather in Cuxhaven — Graph

°F

Cuxhaven temperature yesterday

Maximum temperature yesterday: 61 °F (at 2:20 PM)
Minimum temperature yesterday: 43 °F (at 5:20 AM)
Average temperature yesterday: 53 °F

Past Weeks' High & Low Weather Summary

 TemperatureHumidityPressure
High75 °F (Sep 19, 3:20 PM)100% (Sep 12, 1:20 AM)30.27 "Hg (Sep 12, 1:20 AM)
Low43 °F (Sep 23, 5:20 AM)51% (Sep 22, 11:20 AM)29.89 "Hg (Sep 18, 3:20 PM)
Average61 °F81%30.05 "Hg
* Reported Sep 8 11:20 PM — Sep 23 11:20 PM, Cuxhaven, Weather by CustomWeather, © 2014

Note: Actual official high and low records may vary slightly from our data, if they occured in-between our weather recording intervals... More about our weather records

Advertising

Cuxhaven weather history for previous 24 hours

 ConditionsComfort  
Time TempWeatherWind HumidityBarometerVisibility
11:20 PM
Sep 23
54 °FPassing clouds.8 mph82%29.98 "HgN/A
10:20 PM54 °FPassing clouds.8 mph82%30.01 "HgN/A
9:20 PM55 °FOvercast.7 mph77%30.01 "Hg6 mi
8:20 PM57 °FPartly sunny.7 mph72%30.04 "Hg6 mi
7:20 PM57 °FBroken clouds.6 mph72%30.04 "HgN/A
6:20 PM57 °FPartly sunny.6 mph72%30.04 "HgN/A
5:20 PM59 °FPartly sunny.9 mph68%30.04 "HgN/A
4:20 PM59 °FPartly sunny.10 mph59%30.07 "HgN/A
3:20 PM59 °FPartly sunny.10 mph59%30.07 "HgN/A
2:20 PM61 °FBroken clouds.10 mph59%30.09 "HgN/A
1:20 PM59 °FBroken clouds.9 mph68%30.09 "HgN/A
12:20 PM57 °FPartly sunny.6 mph77%30.09 "HgN/A
11:20 AM57 °FPartly sunny.8 mph67%30.09 "HgN/A
10:20 AM55 °FScattered clouds.7 mph72%30.12 "HgN/A
9:20 AM54 °FPassing clouds.6 mph72%30.09 "HgN/A
8:20 AM46 °FScattered clouds.6 mph87%30.09 "HgN/A
7:20 AM45 °FPassing clouds.6 mph87%30.09 "HgN/A
6:20 AM43 °FPassing clouds.6 mph93%30.09 "HgN/A
5:20 AM43 °FPassing clouds.No wind93%30.09 "HgN/A
4:20 AM45 °FPassing clouds.1 mph87%30.09 "HgN/A
3:20 AM45 °FPassing clouds.2 mph81%30.09 "HgN/A
2:20 AM50 °FPassing clouds.6 mph71%30.09 "HgN/A
1:20 AM50 °FPassing clouds.5 mph67%30.09 "HgN/A
Weather by CustomWeather, © 2014

See weather overviewHow to use our weather pages